Location: *
(43.4667°N, 11.6833°E)
Time: 05:37:20
(UTC+00:00)

Helios 1A - Pass Details

Date: 19 July 2019
Orbit: 585 x 603 km, 98.2° (Epoch: 18 August)

Event Time Altitude Azimuth Distance (km) Brightness Sun altitude
Exits shadow 22:04:17 89° 85° (E) 595 2.8 -23.5°
Maximum altitude 22:04:18 89° 77° (ENE) 595 2.8 -23.5°
Drops below altitude 10° 22:08:28 10° 347° (NNW) 1,922 6.7 -23.7°
Sets 22:10:38 0° 347° (NNW) 2,825 7.9 -23.8°
